Regional Weather Roundup
Issued by NWS

Home | Current Version | Previous Version | Graphics & Text | Print | Product List | Glossary On
Versions: 1 2 3 4 5 6 7 8 9 10 11 12 13 14 15 16 17 18 19 20 21 22 23 24 25 26 27 28 29 30 31 32 33 34 35 36 37 38 39 40 41 42 43 44 45 46 47 48 49 50
000
ASUS43 KFSD 261910
RWRSD

WEATHER ROUNDUP FOR SOUTH DAKOTA
NATIONAL WEATHER SERVICE SIOUX FALLS SD
200 PM CDT THU MAY 26 2016

NOTE: "FAIR" INDICATES FEW OR NO CLOUDS BELOW 12,000 FEET WITH NO
SIGNIFICANT WEATHER AND/OR OBSTRUCTIONS TO VISIBILITY.


SDZ001>005-009-010-012>017-262000-
NORTHWEST AND NORTH CENTRAL SOUTH DAKOTA

CITY           SKY/WX    TMP DP  RH WIND       PRES   REMARKS
BUFFALO          N/A     66  39  37 NW31G39   29.81R
FAITH            N/A     71  40  32 SW12G21   29.85F
MOBRIDGE       SUNNY     73  51  46 SW9       29.81S
$$

SDZ012>016-024>037-041>051-057-063-072>074-262000-
SOUTHWEST AND SOUTH CENTRAL SOUTH DAKOTA

CITY           SKY/WX    TMP DP  RH WIND       PRES   REMARKS
RAPID CTY ARPT PTSUNNY   67  45  45 NE9       29.89F
PIERRE         SUNNY     73  54  51 S13       29.83F
CUSTER         MOSUNNY   63  33  32 VRB7G18   29.94F
ELLSWORTH AFB  PTSUNNY   65  44  45 E6        29.88F
PHILIP         MOSUNNY   70  51  51 N3        29.85F
PINE RIDGE     SUNNY     71  44  37 W5        29.88F
WINNER         FAIR      75  56  51 S9        29.85F
$$

SDZ004>011-016>023-039-040-262000-
NORTHEAST SOUTH DAKOTA

CITY           SKY/WX    TMP DP  RH WIND       PRES   REMARKS
ABERDEEN       CLOUDY    74  51  44 SW12      29.84F
WATERTOWN      SUNNY     73  49  42 W15G22    29.87S
BROOKINGS      MOSUNNY   72  51  47 NW9       29.87F
SISSETON         N/A     77  46  33 NW18G28   29.81R
$$

SDZ017-020-022-023-036>040-048>070-262000-
SOUTHEAST SOUTH DAKOTA

CITY           SKY/WX    TMP DP  RH WIND       PRES   REMARKS
SIOUX FALLS    CLOUDY    72  52  49 SW6       29.89R
HURON          CLOUDY    72  53  51 SW5       29.86F
CHAMBERLAIN    CLOUDY    75  59  57 S9        29.85F
MITCHELL       CLOUDY    73  53  49 S7        29.87S
YANKTON        CLOUDY    72  55  56 CALM      29.87F
$$

ABBREVIATIONS USED IN REMARKS
   TC - TEMPERATURE IN CELSIUS
  WCI - WIND CHILL INDEX
   HX - HEAT INDEX
  VSB - VISIBILITY





USA.gov is the U.S. government's official web portal to all federal, state and local government web resources and services.